Location: Gull Harbor
(47.1000°N, 122.9000°W)
Time: 12:19:15
(UTC-08:00)

BlueWalker 3 - Visible Passes

Search period start: 02 December 2024 00:00
Search period end: 12 December 2024 00:00
Orbit: 469 x 478 km, 53.2° (Epoch: 01 December)

Date Brightness Start Highest point End Pass type
(mag) Time Alt. Az. Time Alt. Az. Time Alt. Az.
02 Dec 4.0 06:47:13 10° SSW 06:50:30 30° SE 06:53:48 10° ENE visible
03 Dec 4.1 06:17:28 10° SSW 06:20:37 26° SE 06:23:47 10° ENE visible
04 Dec 4.2 05:47:44 10° S 05:50:43 23° SE 05:53:42 10° E visible
05 Dec 4.3 05:18:03 10° S 05:20:47 20° SE 05:23:34 10° E visible
05 Dec 1.8 06:54:35 10° WSW 06:58:18 80° NNW 07:02:02 10° ENE visible
06 Dec 4.4 04:50:24 17° SE 04:50:51 17° SE 04:53:22 10° E visible
06 Dec 1.8 06:24:34 10° WSW 06:28:17 88° NNW 06:32:02 10° ENE visible
07 Dec 5.1 04:22:24 12° ESE 04:22:24 12° ESE 04:23:05 10° E visible
07 Dec 1.8 05:56:31 30° SW 05:58:15 82° SE 06:01:59 10° ENE visible
08 Dec 1.9 05:28:13 73° SE 05:28:13 73° SE 05:31:54 10° ENE visible
08 Dec 2.6 07:02:47 10° W 07:06:16 37° NNW 07:09:46 10° NE visible
09 Dec 3.6 04:59:43 30° ENE 04:59:43 30° ENE 05:01:48 10° ENE visible
09 Dec 2.5 06:33:49 18° WNW 06:36:08 39° NNW 06:39:40 10° NE visible
10 Dec 4.9 04:31:05 14° ENE 04:31:05 14° ENE 04:31:39 10° ENE visible
10 Dec 2.4 06:05:10 35° NW 06:05:58 41° NNW 06:09:32 10° NE visible
11 Dec 2.6 05:36:24 40° N 05:36:24 40° N 05:39:22 10° NE visible
11 Dec 2.9 07:10:52 10° WNW 07:14:14 31° N 07:17:35 10° ENE visible
